Location: ?????????
(55.6553°N, 38.9075°E)
Time: 02:27:51
(UTC+00:00)

Cosmos 2278 Rocket - Pass Details

Date: 18 October 2019
Orbit: 840 x 847 km, 71.0° (Epoch: 12 November)

Event Time Altitude Azimuth Distance (km) Brightness Sun altitude
Exits shadow 01:02:43 15° 326° (NW) 2,174 4.2 -25.4°
Maximum altitude 01:07:36 89° 248° (WSW) 855 2.1 -24.7°
Drops below altitude 10° 01:13:18 10° 148° (SSE) 2,466 4.7 -24.0°
Sets 01:15:44 0° 149° (SSE) 3,396 5.5 -23.6°
